STARLINK-33601 (62768 NORAD) Tracking and Keplerian Element Data

This shows tracking and keplerian element data for the satellite.

Feedback or suggestion? Click here.




ElementValue
Catalog62768
NameSTARLINK-33601
Epoch Orbit5231
Epoch Day354.21183451
Epoch Year2025
RAAN331.5581
Inclination53.162
Eccentricity0.0001422
Argument of Perigee90.2073
Mean Anonmoly269.909
Mean Motion15.30198956
Decay Rate0.00016795
L11 62768U 25015L 25354.21183451 .00016795 00000+0 57791-3 0 9995
L22 62768 53.1620 331.5581 0001422 90.2073 269.9090 15.30198956 52317



Live tracking and technical data element details for STARLINK-33601 (NORAD 62768). STARLINK-33601 can be tracked NOW for your location showing map with azimuth and elevation plus other details from your city location.







IsCatalogInMostPopularTable: catalog: 62768, numindb: 227
Update: records affected: 1



GetName: 62768 STARLINK-33601

Hit Count: updated at: Sat, 07 Mar 2026 04:09:14 GMT